TimeEST,TemperatureF,Dew PointF,Humidity,Sea Level PressureIn,VisibilityMPH,Wind Direction,Wind SpeedMPH,Gust SpeedMPH,PrecipitationIn,Events,Conditions,WindDirDegrees,DateUTC
12:53 AM,33.1,25.0,72,30.19,10.0,NE,4.6,-,N/A,,Overcast,40,2012-11-04 04:53:00
1:53 AM,32.0,24.1,73,30.19,10.0,NW,3.5,-,N/A,,Mostly Cloudy,320,2012-11-04 05:53:00
1:53 AM,32.0,26.1,79,30.19,10.0,NNW,3.5,-,N/A,,Overcast,330,2012-11-04 06:53:00
2:25 AM,30.2,24.8,80,30.15,10.0,North,4.6,-,N/A,,Scattered Clouds,350,2012-11-04 07:25:00
2:53 AM,30.0,25.0,82,30.18,10.0,North,5.8,-,N/A,,Clear,350,2012-11-04 07:53:00
3:53 AM,30.0,24.1,79,30.18,10.0,North,3.5,-,N/A,,Clear,350,2012-11-04 08:53:00
4:53 AM,30.0,24.1,79,30.19,10.0,NW,6.9,-,N/A,,Clear,320,2012-11-04 09:53:00
5:53 AM,30.0,25.0,82,30.19,10.0,NW,5.8,-,N/A,,Scattered Clouds,320,2012-11-04 10:53:00
6:53 AM,28.9,24.1,82,30.19,10.0,NNW,6.9,-,N/A,,Partly Cloudy,340,2012-11-04 11:53:00
7:53 AM,30.0,24.1,79,30.21,10.0,NNW,9.2,-,N/A,,Mostly Cloudy,330,2012-11-04 12:53:00
8:53 AM,32.0,25.0,75,30.22,10.0,NNW,9.2,-,N/A,,Overcast,330,2012-11-04 13:53:00
9:53 AM,33.1,25.0,72,30.21,10.0,NW,9.2,-,N/A,,Mostly Cloudy,320,2012-11-04 14:53:00
10:53 AM,35.1,25.0,67,30.20,10.0,NW,8.1,-,N/A,,Mostly Cloudy,320,2012-11-04 15:53:00
11:53 AM,36.0,26.1,67,30.19,10.0,North,8.1,-,N/A,,Overcast,350,2012-11-04 16:53:00
12:53 PM,37.0,26.1,65,30.18,10.0,West,3.5,-,N/A,,Overcast,270,2012-11-04 17:53:00
1:30 PM,37.4,24.8,60,30.15,10.0,Calm,Calm,-,N/A,,Overcast,0,2012-11-04 18:30:00
1:53 PM,37.9,25.0,60,30.18,10.0,Calm,Calm,-,N/A,,Overcast,0,2012-11-04 18:53:00
2:08 PM,37.4,24.8,60,30.14,10.0,NNE,3.5,-,N/A,,Overcast,20,2012-11-04 19:08:00
2:53 PM,37.9,25.0,60,30.17,10.0,NW,5.8,-,N/A,,Overcast,320,2012-11-04 19:53:00
3:53 PM,39.0,24.1,55,30.17,10.0,Variable,3.5,-,N/A,,Mostly Cloudy,0,2012-11-04 20:53:00
4:53 PM,37.0,25.0,62,30.17,10.0,Calm,Calm,-,N/A,,Mostly Cloudy,0,2012-11-04 21:53:00
5:53 PM,34.0,25.0,70,30.18,10.0,NE,4.6,-,N/A,,Mostly Cloudy,40,2012-11-04 22:53:00
6:53 PM,33.1,25.0,72,30.19,10.0,Calm,Calm,-,N/A,,Mostly Cloudy,0,2012-11-04 23:53:00
7:53 PM,32.0,25.0,75,30.19,9.0,North,3.5,-,N/A,,Scattered Clouds,10,2012-11-05 00:53:00
8:53 PM,30.0,24.1,79,30.19,9.0,Calm,Calm,-,N/A,,Scattered Clouds,0,2012-11-05 01:53:00
9:53 PM,28.9,24.1,82,30.19,10.0,Calm,Calm,-,N/A,,Scattered Clouds,0,2012-11-05 02:53:00
10:53 PM,27.0,23.0,85,30.19,10.0,Calm,Calm,-,N/A,,Partly Cloudy,0,2012-11-05 03:53:00